Year,Month,Day,Hour,Minute,Value (Times are PST for temperature in C)
2008,07,14,00,00,10.60
2008,07,14,00,01,10.60
2008,07,14,00,02,10.60
2008,07,14,00,03,10.60
2008,07,14,00,04,10.60
2008,07,14,00,05,10.60
2008,07,14,00,06,10.60
2008,07,14,00,07,10.60
2008,07,14,00,08,10.60
2008,07,14,00,09,10.60
2008,07,14,00,10,10.60
2008,07,14,00,11,10.60
2008,07,14,00,12,10.60
2008,07,14,00,13,10.60
2008,07,14,00,14,10.60
2008,07,14,00,15,10.60
2008,07,14,00,16,10.60
2008,07,14,00,17,10.60
2008,07,14,00,18,10.60
2008,07,14,00,19,10.60
2008,07,14,00,20,10.60
2008,07,14,00,21,10.60
2008,07,14,00,22,10.50
2008,07,14,00,23,10.40
2008,07,14,00,24,10.40
2008,07,14,00,25,10.40
2008,07,14,00,26,10.40
2008,07,14,00,27,10.40
2008,07,14,00,28,10.40
2008,07,14,00,29,10.40
2008,07,14,00,30,10.40
2008,07,14,00,31,10.40
2008,07,14,00,32,10.40
2008,07,14,00,33,10.40
2008,07,14,00,34,10.40
2008,07,14,00,35,10.40
2008,07,14,00,36,10.40
2008,07,14,00,37,10.40
2008,07,14,00,38,10.40
2008,07,14,00,39,10.40
2008,07,14,00,40,10.30
2008,07,14,00,41,10.30
2008,07,14,00,42,10.30
2008,07,14,00,43,10.30
2008,07,14,00,44,10.30
2008,07,14,00,45,10.30
2008,07,14,00,46,10.30
2008,07,14,00,47,10.30
2008,07,14,00,48,10.30
2008,07,14,00,49,10.30
2008,07,14,00,50,10.30
2008,07,14,00,51,10.30
2008,07,14,00,52,10.20
2008,07,14,00,53,10.20
2008,07,14,00,54,10.20
2008,07,14,00,55,10.20
2008,07,14,00,56,10.20
2008,07,14,00,57,10.20
2008,07,14,00,58,10.20
2008,07,14,00,59,10.20
2008,07,14,01,00,10.20
2008,07,14,01,01,10.20
2008,07,14,01,02,10.20
2008,07,14,01,03,10.20
2008,07,14,01,04,10.20
2008,07,14,01,05,10.10
2008,07,14,01,06,10.10
2008,07,14,01,07,10.10
2008,07,14,01,08,10.10
2008,07,14,01,09,10.10
2008,07,14,01,10,10.10
2008,07,14,01,11,10.10
2008,07,14,01,12,10.10
2008,07,14,01,13,10.10
2008,07,14,01,14,10.10
2008,07,14,01,15,10.10
2008,07,14,01,16,10.10
2008,07,14,01,17,10.00
2008,07,14,01,18,9.90
2008,07,14,01,19,9.90
2008,07,14,01,20,9.90
2008,07,14,01,21,9.90
2008,07,14,01,22,9.90
2008,07,14,01,23,9.90
2008,07,14,01,24,9.90
2008,07,14,01,25,9.90
2008,07,14,01,26,9.90
2008,07,14,01,27,9.90
2008,07,14,01,28,9.90
2008,07,14,01,29,9.90
2008,07,14,01,30,9.90
2008,07,14,01,31,9.90
2008,07,14,01,32,9.90
2008,07,14,01,33,9.90
2008,07,14,01,34,9.90
2008,07,14,01,35,9.90
2008,07,14,01,36,9.90
2008,07,14,01,37,9.90
2008,07,14,01,38,9.90
2008,07,14,01,39,9.90
2008,07,14,01,40,9.90
2008,07,14,01,41,9.90
2008,07,14,01,42,9.90
2008,07,14,01,43,9.90
2008,07,14,01,44,9.90
2008,07,14,01,45,9.90
2008,07,14,01,46,9.90
2008,07,14,01,47,9.90
2008,07,14,01,48,9.90
2008,07,14,01,49,9.90
2008,07,14,01,50,9.90
2008,07,14,01,51,9.90
2008,07,14,01,52,9.90
2008,07,14,01,53,9.90
2008,07,14,01,54,9.90
2008,07,14,01,55,9.90
2008,07,14,01,56,9.90
2008,07,14,01,57,9.90
2008,07,14,01,58,9.90
2008,07,14,01,59,9.90
2008,07,14,02,00,9.90
2008,07,14,02,01,9.90
2008,07,14,02,02,9.90
2008,07,14,02,03,9.90
2008,07,14,02,04,9.90
2008,07,14,02,05,9.90
2008,07,14,02,06,9.90
2008,07,14,02,07,9.90
2008,07,14,02,08,9.90
2008,07,14,02,09,9.90
2008,07,14,02,10,9.90
2008,07,14,02,11,9.90
2008,07,14,02,12,9.90
2008,07,14,02,13,9.90
2008,07,14,02,14,9.90
2008,07,14,02,15,9.90
2008,07,14,02,16,9.90
2008,07,14,02,17,9.90
2008,07,14,02,18,9.90
2008,07,14,02,19,9.90
2008,07,14,02,20,9.90
2008,07,14,02,21,9.90
2008,07,14,02,22,9.90
2008,07,14,02,23,9.90
2008,07,14,02,24,9.90
2008,07,14,02,25,9.90
2008,07,14,02,26,9.90
2008,07,14,02,27,9.90
2008,07,14,02,28,9.90
2008,07,14,02,29,9.90
2008,07,14,02,30,9.90
2008,07,14,02,31,10.00
2008,07,14,02,32,10.10
2008,07,14,02,33,10.10
2008,07,14,02,34,10.10
2008,07,14,02,35,10.10
2008,07,14,02,36,10.10
2008,07,14,02,37,10.10
2008,07,14,02,38,10.10
2008,07,14,02,39,10.10
2008,07,14,02,40,10.10
2008,07,14,02,41,10.10
2008,07,14,02,42,10.10
2008,07,14,02,43,10.10
2008,07,14,02,44,10.10
2008,07,14,02,45,10.10
2008,07,14,02,46,10.10
2008,07,14,02,47,10.10
2008,07,14,02,48,10.10
2008,07,14,02,49,10.10
2008,07,14,02,50,10.10
2008,07,14,02,51,10.10
2008,07,14,02,52,10.10
2008,07,14,02,53,10.10
2008,07,14,02,54,10.10
2008,07,14,02,55,10.10
2008,07,14,02,56,10.10
2008,07,14,02,57,10.10
2008,07,14,02,58,10.10
2008,07,14,02,59,10.10
2008,07,14,03,00,10.10
2008,07,14,03,01,10.10
2008,07,14,03,02,10.10
2008,07,14,03,03,10.10
2008,07,14,03,04,10.10
2008,07,14,03,05,10.10
2008,07,14,03,06,10.10
2008,07,14,03,07,10.10
2008,07,14,03,08,10.10
2008,07,14,03,09,10.10
2008,07,14,03,10,10.10
2008,07,14,03,11,10.10
2008,07,14,03,12,10.10
2008,07,14,03,13,10.10
2008,07,14,03,14,10.10
2008,07,14,03,15,10.10
2008,07,14,03,16,10.10
2008,07,14,03,17,10.10
2008,07,14,03,18,10.10
2008,07,14,03,19,10.10
2008,07,14,03,20,10.10
2008,07,14,03,21,10.10
2008,07,14,03,22,10.10
2008,07,14,03,23,10.10
2008,07,14,03,24,10.10
2008,07,14,03,25,10.10
2008,07,14,03,26,10.10
2008,07,14,03,27,10.10
2008,07,14,03,28,10.10
2008,07,14,03,29,10.10
2008,07,14,03,30,10.10
2008,07,14,03,31,10.10
2008,07,14,03,32,10.10
2008,07,14,03,33,10.10
2008,07,14,03,34,10.10
2008,07,14,03,35,10.10
2008,07,14,03,36,10.10
2008,07,14,03,37,10.10
2008,07,14,03,38,10.10
2008,07,14,03,39,10.10
2008,07,14,03,40,10.10
2008,07,14,03,41,10.10
2008,07,14,03,42,10.10
2008,07,14,03,43,10.10
2008,07,14,03,44,10.10
2008,07,14,03,45,10.10
2008,07,14,03,46,10.10
2008,07,14,03,47,10.10
2008,07,14,03,48,10.10
2008,07,14,03,49,10.10
2008,07,14,03,50,10.10
2008,07,14,03,51,10.10
2008,07,14,03,52,10.10
2008,07,14,03,53,10.10
2008,07,14,03,54,10.10
2008,07,14,03,55,10.10
2008,07,14,03,56,10.10
2008,07,14,03,57,10.10
2008,07,14,03,58,10.10
2008,07,14,03,59,10.10
2008,07,14,04,00,10.10
2008,07,14,04,01,10.10
2008,07,14,04,02,10.10
2008,07,14,04,03,10.10
2008,07,14,04,04,10.10
2008,07,14,04,05,10.10
2008,07,14,04,06,10.10
2008,07,14,04,07,10.10
2008,07,14,04,08,10.10
2008,07,14,04,09,10.10
2008,07,14,04,10,10.10
2008,07,14,04,11,10.10
2008,07,14,04,12,10.10
2008,07,14,04,13,10.10
2008,07,14,04,14,10.10
2008,07,14,04,15,10.10
2008,07,14,04,16,10.10
2008,07,14,04,17,10.10
2008,07,14,04,18,10.10
2008,07,14,04,19,10.10
2008,07,14,04,20,10.10
2008,07,14,04,21,10.10
2008,07,14,04,22,10.10
2008,07,14,04,23,10.10
2008,07,14,04,24,10.10
2008,07,14,04,25,10.10
2008,07,14,04,26,10.10
2008,07,14,04,27,10.10
2008,07,14,04,28,10.10
2008,07,14,04,29,10.10
2008,07,14,04,30,10.10
2008,07,14,04,31,10.10
2008,07,14,04,32,10.00
2008,07,14,04,33,9.90
2008,07,14,04,34,9.90
2008,07,14,04,35,9.90
2008,07,14,04,36,9.90
2008,07,14,04,37,9.90
2008,07,14,04,38,9.90
2008,07,14,04,39,9.90
2008,07,14,04,40,9.90
2008,07,14,04,41,9.90
2008,07,14,04,42,9.90
2008,07,14,04,43,9.90
2008,07,14,04,44,9.90
2008,07,14,04,45,9.90
2008,07,14,04,46,9.90
2008,07,14,04,47,9.90
2008,07,14,04,48,9.90
2008,07,14,04,49,9.90
2008,07,14,04,50,9.90
2008,07,14,04,51,9.90
2008,07,14,04,52,9.90
2008,07,14,04,53,9.90
2008,07,14,04,54,9.90
2008,07,14,04,55,9.90
2008,07,14,04,56,9.90
2008,07,14,04,57,9.80
2008,07,14,04,58,9.80
2008,07,14,04,59,9.90
2008,07,14,05,00,9.90
2008,07,14,05,01,9.90
2008,07,14,05,02,9.90
2008,07,14,05,03,9.90
2008,07,14,05,04,9.90
2008,07,14,05,05,9.90
2008,07,14,05,06,9.90
2008,07,14,05,07,9.90
2008,07,14,05,08,9.90
2008,07,14,05,09,9.80
2008,07,14,05,10,9.80
2008,07,14,05,11,9.80
2008,07,14,05,12,9.80
2008,07,14,05,13,9.80
2008,07,14,05,14,9.80
2008,07,14,05,15,9.80
2008,07,14,05,16,9.80
2008,07,14,05,17,9.80
2008,07,14,05,18,9.70
2008,07,14,05,19,9.70
2008,07,14,05,20,9.70
2008,07,14,05,21,9.70
2008,07,14,05,22,9.70
2008,07,14,05,23,9.70
2008,07,14,05,24,9.70
2008,07,14,05,25,9.70
2008,07,14,05,26,9.70
2008,07,14,05,27,9.70
2008,07,14,05,28,9.70
2008,07,14,05,29,9.70
2008,07,14,05,30,9.70
2008,07,14,05,31,9.70
2008,07,14,05,32,9.70
2008,07,14,05,33,9.60
2008,07,14,05,34,9.60
2008,07,14,05,35,9.60
2008,07,14,05,36,9.60
2008,07,14,05,37,9.60
2008,07,14,05,38,9.60
2008,07,14,05,39,9.50
2008,07,14,05,40,9.50
2008,07,14,05,41,9.50
2008,07,14,05,42,9.50
2008,07,14,05,43,9.50
2008,07,14,05,44,9.50
2008,07,14,05,45,9.50
2008,07,14,05,46,9.50
2008,07,14,05,47,9.50
2008,07,14,05,48,9.50
2008,07,14,05,49,9.50
2008,07,14,05,50,9.40
2008,07,14,05,51,9.40
2008,07,14,05,52,9.40
2008,07,14,05,53,9.40
2008,07,14,05,54,9.40
2008,07,14,05,55,9.40
2008,07,14,05,56,9.40
2008,07,14,05,57,9.40
2008,07,14,05,58,9.40
2008,07,14,05,59,9.50
2008,07,14,06,00,9.50
2008,07,14,06,01,9.50
2008,07,14,06,02,9.50
2008,07,14,06,03,9.50
2008,07,14,06,04,9.50
2008,07,14,06,05,9.50
2008,07,14,06,06,9.50
2008,07,14,06,07,9.50
2008,07,14,06,08,9.50
2008,07,14,06,09,9.50
2008,07,14,06,10,9.50
2008,07,14,06,11,9.40
2008,07,14,06,12,9.40
2008,07,14,06,13,9.40
2008,07,14,06,14,9.40
2008,07,14,06,15,9.40
2008,07,14,06,16,9.40
2008,07,14,06,17,9.40
2008,07,14,06,18,9.40
2008,07,14,06,19,9.30
2008,07,14,06,20,9.30
2008,07,14,06,21,9.30
2008,07,14,06,22,9.30
2008,07,14,06,23,9.30
2008,07,14,06,24,9.30
2008,07,14,06,25,9.30
2008,07,14,06,26,9.30
2008,07,14,06,27,9.30
2008,07,14,06,28,9.30
2008,07,14,06,29,9.40
2008,07,14,06,30,9.40
2008,07,14,06,31,9.40
2008,07,14,06,32,9.40
2008,07,14,06,33,9.40
2008,07,14,06,34,9.40
2008,07,14,06,35,9.40
2008,07,14,06,36,9.40
2008,07,14,06,37,9.40
2008,07,14,06,38,9.50
2008,07,14,06,39,9.50
2008,07,14,06,40,9.50
2008,07,14,06,41,9.60
2008,07,14,06,42,9.60
2008,07,14,06,43,9.60
2008,07,14,06,44,9.70
2008,07,14,06,45,9.70
2008,07,14,06,46,9.70
2008,07,14,06,47,9.70
2008,07,14,06,48,9.70
2008,07,14,06,49,9.70
2008,07,14,06,50,9.70
2008,07,14,06,51,9.70
2008,07,14,06,52,9.70
2008,07,14,06,53,9.70
2008,07,14,06,54,9.70
2008,07,14,06,55,9.80
2008,07,14,06,56,9.80
2008,07,14,06,57,9.80
2008,07,14,06,58,9.80
2008,07,14,06,59,9.80
2008,07,14,07,00,9.80
2008,07,14,07,01,9.80
2008,07,14,07,02,9.80
2008,07,14,07,03,9.80
2008,07,14,07,04,9.80
2008,07,14,07,05,9.80
2008,07,14,07,06,9.80
2008,07,14,07,07,9.90
2008,07,14,07,08,9.90
2008,07,14,07,09,9.90
2008,07,14,07,10,9.90
2008,07,14,07,11,9.90
2008,07,14,07,12,9.90
2008,07,14,07,13,9.90
2008,07,14,07,14,10.00
2008,07,14,07,15,10.10
2008,07,14,07,16,10.10
2008,07,14,07,17,10.10
2008,07,14,07,18,10.10
2008,07,14,07,19,10.10
2008,07,14,07,20,10.10
2008,07,14,07,21,10.20
2008,07,14,07,22,10.20
2008,07,14,07,23,10.20
2008,07,14,07,24,10.20
2008,07,14,07,25,10.20
2008,07,14,07,26,10.20
2008,07,14,07,27,10.20
2008,07,14,07,28,10.20
2008,07,14,07,29,10.30
2008,07,14,07,30,10.30
2008,07,14,07,31,10.40
2008,07,14,07,32,10.40
2008,07,14,07,33,10.40
2008,07,14,07,34,10.40
2008,07,14,07,35,10.40
2008,07,14,07,36,10.40
2008,07,14,07,37,10.40
2008,07,14,07,38,10.40
2008,07,14,07,39,10.30
2008,07,14,07,40,10.30
2008,07,14,07,41,10.30
2008,07,14,07,42,10.30
2008,07,14,07,43,10.30
2008,07,14,07,44,10.30
2008,07,14,07,45,10.40
2008,07,14,07,46,10.40
2008,07,14,07,47,10.40
2008,07,14,07,48,10.40
2008,07,14,07,49,10.40
2008,07,14,07,50,10.40
2008,07,14,07,51,10.50
2008,07,14,07,52,10.60
2008,07,14,07,53,10.60
2008,07,14,07,54,10.60
2008,07,14,07,55,10.70
2008,07,14,07,56,10.70
2008,07,14,07,57,10.70
2008,07,14,07,58,10.80
2008,07,14,07,59,10.90
2008,07,14,08,00,10.90
2008,07,14,08,01,10.90
2008,07,14,08,02,10.90
2008,07,14,08,03,10.90
2008,07,14,08,04,10.90
2008,07,14,08,05,11.00
2008,07,14,08,06,11.10
2008,07,14,08,07,11.10
2008,07,14,08,08,11.10
2008,07,14,08,09,11.10
2008,07,14,08,10,11.10
2008,07,14,08,11,11.20
2008,07,14,08,12,11.20
2008,07,14,08,13,11.30
2008,07,14,08,14,11.30
2008,07,14,08,15,11.40
2008,07,14,08,16,11.40
2008,07,14,08,17,11.40
2008,07,14,08,18,11.40
2008,07,14,08,19,11.40
2008,07,14,08,20,11.40
2008,07,14,08,21,11.40
2008,07,14,08,22,11.50
2008,07,14,08,23,11.60
2008,07,14,08,24,11.60
2008,07,14,08,25,11.70
2008,07,14,08,26,11.70
2008,07,14,08,27,11.80
2008,07,14,08,28,11.80
2008,07,14,08,29,11.80
2008,07,14,08,30,11.80
2008,07,14,08,31,11.80
2008,07,14,08,32,11.80
2008,07,14,08,33,11.80
2008,07,14,08,34,11.80
2008,07,14,08,35,11.90
2008,07,14,08,36,12.00
2008,07,14,08,37,12.00
2008,07,14,08,38,12.00
2008,07,14,08,39,11.90
2008,07,14,08,40,11.90
2008,07,14,08,41,12.00
2008,07,14,08,42,12.00
2008,07,14,08,43,12.00
2008,07,14,08,44,12.00
2008,07,14,08,45,12.10
2008,07,14,08,46,12.10
2008,07,14,08,47,12.10
2008,07,14,08,48,12.10
2008,07,14,08,49,12.20
2008,07,14,08,50,12.30
2008,07,14,08,51,12.30
2008,07,14,08,52,12.40
2008,07,14,08,53,12.50
2008,07,14,08,54,12.60
2008,07,14,08,55,12.70
2008,07,14,08,56,12.80
2008,07,14,08,57,12.80
2008,07,14,08,58,12.70
2008,07,14,08,59,12.70
2008,07,14,09,00,12.70
2008,07,14,09,01,12.70
2008,07,14,09,02,12.80
2008,07,14,09,03,12.70
2008,07,14,09,04,12.70
2008,07,14,09,05,12.70
2008,07,14,09,06,12.70
2008,07,14,09,07,12.70
2008,07,14,09,08,12.60
2008,07,14,09,09,12.60
2008,07,14,09,10,12.70
2008,07,14,09,11,12.70
2008,07,14,09,12,12.70
2008,07,14,09,13,12.70
2008,07,14,09,14,12.70
2008,07,14,09,15,12.70
2008,07,14,09,16,12.60
2008,07,14,09,17,12.50
2008,07,14,09,18,12.50
2008,07,14,09,19,12.50
2008,07,14,09,20,12.40
2008,07,14,09,21,12.40
2008,07,14,09,22,12.40
2008,07,14,09,23,12.50
2008,07,14,09,24,12.60
2008,07,14,09,25,12.60
2008,07,14,09,26,12.70
2008,07,14,09,27,12.70
2008,07,14,09,28,12.70
2008,07,14,09,29,12.80
2008,07,14,09,30,12.80
2008,07,14,09,31,12.80
2008,07,14,09,32,12.80
2008,07,14,09,33,12.80
2008,07,14,09,34,12.80
2008,07,14,09,35,12.80
2008,07,14,09,36,12.80
2008,07,14,09,37,12.80
2008,07,14,09,38,12.80
2008,07,14,09,39,12.80
2008,07,14,09,40,12.90
2008,07,14,09,41,12.80
2008,07,14,09,42,12.80
2008,07,14,09,43,12.80
2008,07,14,09,44,12.80
2008,07,14,09,45,12.80
2008,07,14,09,46,12.90
2008,07,14,09,47,12.90
2008,07,14,09,48,12.90
2008,07,14,09,49,12.90
2008,07,14,09,50,12.80
2008,07,14,09,51,12.80
2008,07,14,09,52,12.80
2008,07,14,09,53,12.80
2008,07,14,09,54,12.80
2008,07,14,09,55,12.80
2008,07,14,09,56,12.70
2008,07,14,09,57,12.70
2008,07,14,09,58,12.80
2008,07,14,09,59,12.80
2008,07,14,10,00,12.80
2008,07,14,10,01,12.90
2008,07,14,10,02,12.90
2008,07,14,10,03,13.00
2008,07,14,10,04,13.00
2008,07,14,10,05,13.10
2008,07,14,10,06,13.10
2008,07,14,10,07,13.20
2008,07,14,10,08,13.30
2008,07,14,10,09,13.40
2008,07,14,10,10,13.50
2008,07,14,10,11,13.60
2008,07,14,10,12,13.60
2008,07,14,10,13,13.70
2008,07,14,10,14,13.70
2008,07,14,10,15,13.80
2008,07,14,10,16,13.90
2008,07,14,10,17,13.90
2008,07,14,10,18,14.00
2008,07,14,10,19,14.20
2008,07,14,10,20,14.20
2008,07,14,10,21,14.40
2008,07,14,10,22,14.50
2008,07,14,10,23,14.60
2008,07,14,10,24,14.60
2008,07,14,10,25,14.60
2008,07,14,10,26,14.60
2008,07,14,10,27,14.50
2008,07,14,10,28,14.50
2008,07,14,10,29,14.50
2008,07,14,10,30,14.50
2008,07,14,10,31,14.50
2008,07,14,10,32,14.60
2008,07,14,10,33,14.60
2008,07,14,10,34,14.60
2008,07,14,10,35,14.60
2008,07,14,10,36,14.70
2008,07,14,10,37,14.70
2008,07,14,10,38,14.80
2008,07,14,10,39,14.80
2008,07,14,10,40,14.80
2008,07,14,10,41,14.70
2008,07,14,10,42,14.70
2008,07,14,10,43,14.70
2008,07,14,10,44,14.60
2008,07,14,10,45,14.70
2008,07,14,10,46,14.70
2008,07,14,10,47,14.70
2008,07,14,10,48,14.70
2008,07,14,10,49,14.70
2008,07,14,10,50,14.70
2008,07,14,10,51,14.70
2008,07,14,10,52,14.80
2008,07,14,10,53,14.80
2008,07,14,10,54,14.80
2008,07,14,10,55,14.80
2008,07,14,10,56,14.80
2008,07,14,10,57,14.80
2008,07,14,10,58,14.80
2008,07,14,10,59,14.80
2008,07,14,11,00,14.80
2008,07,14,11,01,14.90
2008,07,14,11,02,14.90
2008,07,14,11,03,15.00
2008,07,14,11,04,15.00
2008,07,14,11,05,15.10
2008,07,14,11,06,15.00
2008,07,14,11,07,15.00
2008,07,14,11,08,15.00
2008,07,14,11,09,15.00
2008,07,14,11,10,15.00
2008,07,14,11,11,15.00
2008,07,14,11,12,15.00
2008,07,14,11,13,15.00
2008,07,14,11,14,15.00
2008,07,14,11,15,15.00
2008,07,14,11,16,15.00
2008,07,14,11,17,15.00
2008,07,14,11,18,14.90
2008,07,14,11,19,14.90
2008,07,14,11,20,15.00
2008,07,14,11,21,15.00
2008,07,14,11,22,15.00
2008,07,14,11,23,15.10
2008,07,14,11,24,15.20
2008,07,14,11,25,15.20
2008,07,14,11,26,15.30
2008,07,14,11,27,15.30
2008,07,14,11,28,15.40
2008,07,14,11,29,15.50
2008,07,14,11,30,15.50
2008,07,14,11,31,15.60
2008,07,14,11,32,15.80
2008,07,14,11,33,15.80
2008,07,14,11,34,16.00
2008,07,14,11,35,16.10
2008,07,14,11,36,16.20
2008,07,14,11,37,16.30
2008,07,14,11,38,16.40
2008,07,14,11,39,16.40
2008,07,14,11,40,16.40
2008,07,14,11,41,16.60
2008,07,14,11,42,16.70
2008,07,14,11,43,16.80
2008,07,14,11,44,16.90
2008,07,14,11,45,17.10
2008,07,14,11,46,17.30
2008,07,14,11,47,17.30
2008,07,14,11,48,17.30
2008,07,14,11,49,17.30
2008,07,14,11,50,17.30
2008,07,14,11,51,17.30
2008,07,14,11,52,17.40
2008,07,14,11,53,17.40
2008,07,14,11,54,17.50
2008,07,14,11,55,17.40
2008,07,14,11,56,17.40
2008,07,14,11,57,17.40
2008,07,14,11,58,17.40
2008,07,14,11,59,17.40
2008,07,14,12,00,17.50
2008,07,14,12,01,17.50
2008,07,14,12,02,17.60
2008,07,14,12,03,17.70
2008,07,14,12,04,17.80
2008,07,14,12,05,17.90
2008,07,14,12,06,17.90
2008,07,14,12,07,17.90
2008,07,14,12,08,17.90
2008,07,14,12,09,17.90
2008,07,14,12,10,17.90
2008,07,14,12,11,17.90
2008,07,14,12,12,17.90
2008,07,14,12,13,18.00
2008,07,14,12,14,18.10
2008,07,14,12,15,18.20
2008,07,14,12,16,18.20
2008,07,14,12,17,18.20
2008,07,14,12,18,18.30
2008,07,14,12,19,18.40
2008,07,14,12,20,18.40
2008,07,14,12,21,18.40
2008,07,14,12,22,18.30
2008,07,14,12,23,18.20
2008,07,14,12,24,18.20
2008,07,14,12,25,18.20
2008,07,14,12,26,18.10
2008,07,14,12,27,18.10
2008,07,14,12,28,18.10
2008,07,14,12,29,18.10
2008,07,14,12,30,18.10
2008,07,14,12,31,18.10
2008,07,14,12,32,18.20
2008,07,14,12,33,18.20
2008,07,14,12,34,18.20
2008,07,14,12,35,18.20
2008,07,14,12,36,18.20
2008,07,14,12,37,18.20
2008,07,14,12,38,18.30
2008,07,14,12,39,18.40
2008,07,14,12,40,18.50
2008,07,14,12,41,18.60
2008,07,14,12,42,18.70
2008,07,14,12,43,18.80
2008,07,14,12,44,18.80
2008,07,14,12,45,18.80
2008,07,14,12,46,18.90
2008,07,14,12,47,18.90
2008,07,14,12,48,18.90
2008,07,14,12,49,18.90
2008,07,14,12,50,18.80
2008,07,14,12,51,18.80
2008,07,14,12,52,18.90
2008,07,14,12,53,19.00
2008,07,14,12,54,19.10
2008,07,14,12,55,19.10
2008,07,14,12,56,19.20
2008,07,14,12,57,19.30
2008,07,14,12,58,19.30
2008,07,14,12,59,19.40
2008,07,14,13,00,19.50
2008,07,14,13,01,19.50
2008,07,14,13,02,19.60
2008,07,14,13,03,19.70
2008,07,14,13,04,19.80
2008,07,14,13,05,19.90
2008,07,14,13,06,19.90
2008,07,14,13,07,20.00
2008,07,14,13,08,20.10
2008,07,14,13,09,20.20
2008,07,14,13,10,20.30
2008,07,14,13,11,20.40
2008,07,14,13,12,20.40
2008,07,14,13,13,20.40
2008,07,14,13,14,20.30
2008,07,14,13,15,20.40
2008,07,14,13,16,20.50
2008,07,14,13,17,20.50
2008,07,14,13,18,20.60
2008,07,14,13,19,20.60
2008,07,14,13,20,20.70
2008,07,14,13,21,20.80
2008,07,14,13,22,20.90
2008,07,14,13,23,21.00
2008,07,14,13,24,21.10
2008,07,14,13,25,21.20
2008,07,14,13,26,21.30
2008,07,14,13,27,21.30
2008,07,14,13,28,21.30
2008,07,14,13,29,21.40
2008,07,14,13,30,21.40
2008,07,14,13,31,21.40
2008,07,14,13,32,21.40
2008,07,14,13,33,21.50
2008,07,14,13,34,21.40
2008,07,14,13,35,21.40
2008,07,14,13,36,21.40
2008,07,14,13,37,21.40
2008,07,14,13,38,21.30
2008,07,14,13,39,21.30
2008,07,14,13,40,21.30
2008,07,14,13,41,21.30
2008,07,14,13,42,21.30
2008,07,14,13,43,21.30
2008,07,14,13,44,21.20
2008,07,14,13,45,21.20
2008,07,14,13,46,21.10
2008,07,14,13,47,21.10
2008,07,14,13,48,21.00
2008,07,14,13,49,21.00
2008,07,14,13,50,20.90
2008,07,14,13,51,20.90
2008,07,14,13,52,20.90
2008,07,14,13,53,20.90
2008,07,14,13,54,20.90
2008,07,14,13,55,20.70
2008,07,14,13,56,20.70
2008,07,14,13,57,20.70
2008,07,14,13,58,20.70
2008,07,14,13,59,20.70
2008,07,14,14,00,20.70
2008,07,14,14,01,20.70
2008,07,14,14,02,20.70
2008,07,14,14,03,20.70
2008,07,14,14,04,20.70
2008,07,14,14,05,20.70
2008,07,14,14,06,20.70
2008,07,14,14,07,20.70
2008,07,14,14,08,20.80
2008,07,14,14,09,20.80
2008,07,14,14,10,20.90
2008,07,14,14,11,20.80
2008,07,14,14,12,20.90
2008,07,14,14,13,20.90
2008,07,14,14,14,21.00
2008,07,14,14,15,21.00
2008,07,14,14,16,21.10
2008,07,14,14,17,21.10
2008,07,14,14,18,21.20
2008,07,14,14,19,21.20
2008,07,14,14,20,21.10
2008,07,14,14,21,21.00
2008,07,14,14,22,21.00
2008,07,14,14,23,21.00
2008,07,14,14,24,20.90
2008,07,14,14,25,20.90
2008,07,14,14,26,21.00
2008,07,14,14,27,21.10
2008,07,14,14,28,21.20
2008,07,14,14,29,21.30
2008,07,14,14,30,21.30
2008,07,14,14,31,21.40
2008,07,14,14,32,21.60
2008,07,14,14,33,21.60
2008,07,14,14,34,21.70
2008,07,14,14,35,21.80
2008,07,14,14,36,21.90
2008,07,14,14,37,21.90
2008,07,14,14,38,22.00
2008,07,14,14,39,22.10
2008,07,14,14,40,22.30
2008,07,14,14,41,22.50
2008,07,14,14,42,22.60
2008,07,14,14,43,22.70
2008,07,14,14,44,22.70
2008,07,14,14,45,22.70
2008,07,14,14,46,22.80
2008,07,14,14,47,22.60
2008,07,14,14,48,22.60
2008,07,14,14,49,22.60
2008,07,14,14,50,22.50
2008,07,14,14,51,22.20
2008,07,14,14,52,21.90
2008,07,14,14,53,21.70
2008,07,14,14,54,21.60
2008,07,14,14,55,21.50
2008,07,14,14,56,21.40
2008,07,14,14,57,21.30
2008,07,14,14,58,21.40
2008,07,14,14,59,21.40
2008,07,14,15,00,21.40
2008,07,14,15,01,21.30
2008,07,14,15,02,21.30
2008,07,14,15,03,21.30
2008,07,14,15,04,21.30
2008,07,14,15,05,21.30
2008,07,14,15,06,21.20
2008,07,14,15,07,21.20
2008,07,14,15,08,21.10
2008,07,14,15,09,21.10
2008,07,14,15,10,21.00
2008,07,14,15,11,21.00
2008,07,14,15,12,20.90
2008,07,14,15,13,20.90
2008,07,14,15,14,20.80
2008,07,14,15,15,20.80
2008,07,14,15,16,20.80
2008,07,14,15,17,20.90
2008,07,14,15,18,21.00
2008,07,14,15,19,21.00
2008,07,14,15,20,21.00
2008,07,14,15,21,20.90
2008,07,14,15,22,20.80
2008,07,14,15,23,20.80
2008,07,14,15,24,20.60
2008,07,14,15,25,20.60
2008,07,14,15,26,20.50
2008,07,14,15,27,20.50
2008,07,14,15,28,20.50
2008,07,14,15,29,20.40
2008,07,14,15,30,20.40
2008,07,14,15,31,20.40
2008,07,14,15,32,20.40
2008,07,14,15,33,20.40
2008,07,14,15,34,20.40
2008,07,14,15,35,20.50
2008,07,14,15,36,20.50
2008,07,14,15,37,20.50
2008,07,14,15,38,20.60
2008,07,14,15,39,20.60
2008,07,14,15,40,20.70
2008,07,14,15,41,20.70
2008,07,14,15,42,20.70
2008,07,14,15,43,20.80
2008,07,14,15,44,20.80
2008,07,14,15,45,21.00
2008,07,14,15,46,21.10
2008,07,14,15,47,21.20
2008,07,14,15,48,21.30
2008,07,14,15,49,21.40
2008,07,14,15,50,21.30
2008,07,14,15,51,21.30
2008,07,14,15,52,21.30
2008,07,14,15,53,21.30
2008,07,14,15,54,21.30
2008,07,14,15,55,21.30
2008,07,14,15,56,21.30
2008,07,14,15,57,21.30
2008,07,14,15,58,21.30
2008,07,14,15,59,21.30
2008,07,14,16,00,21.30
2008,07,14,16,01,21.40
2008,07,14,16,02,21.60
2008,07,14,16,03,21.70
2008,07,14,16,04,21.80
2008,07,14,16,05,21.90
2008,07,14,16,06,22.00
2008,07,14,16,07,22.00
2008,07,14,16,08,22.10
2008,07,14,16,09,22.10
2008,07,14,16,10,22.10
2008,07,14,16,11,22.00
2008,07,14,16,12,21.90
2008,07,14,16,13,21.80
2008,07,14,16,14,21.70
2008,07,14,16,15,21.50
2008,07,14,16,16,21.30
2008,07,14,16,17,21.20
2008,07,14,16,18,21.10
2008,07,14,16,19,21.00
2008,07,14,16,20,20.80
2008,07,14,16,21,20.80
2008,07,14,16,22,20.80
2008,07,14,16,23,20.80
2008,07,14,16,24,20.70
2008,07,14,16,25,20.70
2008,07,14,16,26,20.60
2008,07,14,16,27,20.50
2008,07,14,16,28,20.40
2008,07,14,16,29,20.20
2008,07,14,16,30,20.20
2008,07,14,16,31,20.20
2008,07,14,16,32,20.20
2008,07,14,16,33,20.10
2008,07,14,16,34,20.10
2008,07,14,16,35,20.10
2008,07,14,16,36,20.20
2008,07,14,16,37,20.20
2008,07,14,16,38,20.30
2008,07,14,16,39,20.30
2008,07,14,16,40,20.30
2008,07,14,16,41,20.40
2008,07,14,16,42,20.40
2008,07,14,16,43,20.30
2008,07,14,16,44,20.30
2008,07,14,16,45,20.30
2008,07,14,16,46,20.30
2008,07,14,16,47,20.30
2008,07,14,16,48,20.30
2008,07,14,16,49,20.30
2008,07,14,16,50,20.30
2008,07,14,16,51,20.40
2008,07,14,16,52,20.40
2008,07,14,16,53,20.50
2008,07,14,16,54,20.60
2008,07,14,16,55,20.70
2008,07,14,16,56,20.80
2008,07,14,16,57,21.00
2008,07,14,16,58,21.00
2008,07,14,16,59,21.20
2008,07,14,17,00,21.30
2008,07,14,17,01,21.50
2008,07,14,17,02,21.70
2008,07,14,17,03,22.00
2008,07,14,17,04,22.20
2008,07,14,17,05,22.30
2008,07,14,17,06,22.50
2008,07,14,17,07,22.60
2008,07,14,17,08,22.70
2008,07,14,17,09,22.80
2008,07,14,17,10,22.90
2008,07,14,17,11,22.90
2008,07,14,17,12,23.00
2008,07,14,17,13,23.10
2008,07,14,17,14,23.30
2008,07,14,17,15,23.40
2008,07,14,17,16,23.60
2008,07,14,17,17,23.60
2008,07,14,17,18,23.70
2008,07,14,17,19,23.70
2008,07,14,17,20,23.80
2008,07,14,17,21,23.90
2008,07,14,17,22,24.00
2008,07,14,17,23,24.10
2008,07,14,17,24,24.10
2008,07,14,17,25,24.20
2008,07,14,17,26,24.30
2008,07,14,17,27,24.40
2008,07,14,17,28,24.50
2008,07,14,17,29,24.40